Waarnemingen

Advertentie
Mijn weer
Landivisiau, Frankrijk (7106): temperatuur & dauwpunt: 19.05.2019 21:00:00 - 25.05.2019 21:00:00 (CEST)Landivisiau, Frankrijk (7106): temperatuur 5cm: 19.05.2019 21:00:00 - 25.05.2019 21:00:00 (CEST)Landivisiau, Frankrijk (7106): temperatuur -20cm: 19.05.2019 21:00:00 - 25.05.2019 21:00:00 (CEST)Landivisiau, Frankrijk (7106): windsnelheid & windstoten: 19.05.2019 21:00:00 - 25.05.2019 21:00:00 (CEST)Landivisiau, Frankrijk (7106): windrichting: 19.05.2019 21:00:00 - 25.05.2019 21:00:00 (CEST)Landivisiau, Frankrijk (7106): luchtdruk: 19.05.2019 21:00:00 - 25.05.2019 21:00:00 (CEST)Landivisiau, Frankrijk (7106): zicht: 19.05.2019 21:00:00 - 25.05.2019 21:00:00 (CEST)Landivisiau, Frankrijk (7106): neerslag: 19.05.2019 21:00:00 - 25.05.2019 21:00:00 (CEST)
Datum & Tijd tt [°C] td [°C] tt 5cm [°C] tt -20cm [°C] ff [km/u] ff [kn] fx [km/u] fx [kn] dd ppp [hPa] vv [km] rr [mm]
25.05.2019 21:00:00 13,9 12,8 14,1 17,5 13 7 - - NW 1022,4 12 0,0
25.05.2019 20:00:00 15,7 13,0 15,0 17,4 18 10 - - WNW 1022,0 35 0,0
25.05.2019 19:00:00 16,9 12,4 18,0 17,3 18 10 - - NW 1021,9 46 0,0
25.05.2019 18:00:00 17,8 11,8 18,6 17,1 18 10 - - NW 1021,8 21 0,0
25.05.2019 17:00:00 18,5 11,6 19,5 16,8 18 10 - - NW 1021,9 41 0,0
25.05.2019 16:00:00 19,0 12,5 19,1 16,4 16 9 - - NW 1022,0 31 0,0
25.05.2019 15:00:00 18,9 11,9 20,1 16,2 14 7 - - NNW 1022,2 34 0,0
25.05.2019 14:00:00 17,9 11,2 18,8 16,0 12 6 - - WNW 1022,6 36 0,0
25.05.2019 13:00:00 17,1 11,6 18,1 15,9 9 5 - - WNW 1022,8 48 0,0
25.05.2019 12:00:00 16,1 10,6 17,4 15,8 15 8 - - NW 1022,9 40 0,0
25.05.2019 11:00:00 15,1 11,3 16,4 15,8 11 6 - - NW 1023,0 37 0,0
25.05.2019 10:00:00 14,1 11,3 14,2 15,8 13 7 - - NW 1022,8 27 0,0
25.05.2019 09:00:00 13,5 11,5 13,3 15,9 11 6 - - NW 1022,6 20 0,0
25.05.2019 08:00:00 12,8 11,4 12,4 16,0 13 7 - - WNW 1022,4 19 0,0
25.05.2019 07:00:00 12,3 11,0 12,1 16,1 9 5 - - WNW 1022,2 16 0,0
25.05.2019 06:00:00 12,3 10,9 12,1 16,2 8 5 - - WNW 1022,1 17 0,0
25.05.2019 05:00:00 12,2 10,3 12,1 16,3 7 4 - - NW 1022,1 31 0,0
25.05.2019 04:00:00 12,2 10,4 11,9 16,5 12 6 - - WNW 1022,4 27 0,0
25.05.2019 03:00:00 12,1 10,5 11,8 16,6 9 5 - - NW 1022,6 29 0,0
25.05.2019 02:00:00 12,1 10,5 12,0 16,7 12 6 - - NW 1022,7 30 0,0
25.05.2019 01:00:00 12,2 10,6 12,1 16,8 15 8 - - NW 1022,7 31 0,0
25.05.2019 00:00:00 12,5 10,7 12,3 17,0 12 6 - - NW 1022,6 33 0,0
24.05.2019 23:00:00 12,5 10,6 12,2 17,1 13 7 - - NW 1022,6 48 0,0
24.05.2019 22:00:00 12,7 10,6 12,6 17,1 14 7 - - NW 1022,2 42 0,0
24.05.2019 21:00:00 13,2 9,4 13,2 17,1 16 9 - - NNW 1022,0 51 0,0
24.05.2019 20:00:00 13,9 10,1 14,6 17,0 18 10 - - NNW 1021,5 43 0,0
24.05.2019 19:00:00 15,4 10,6 15,3 17,0 18 10 - - NNW 1021,5 45 0,0
24.05.2019 18:00:00 14,7 11,3 15,9 16,7 19 10 - - NNW 1021,8 46 0,0
24.05.2019 17:00:00 16,0 12,2 18,0 16,4 21 11 - - NNW 1021,7 26 0,0
24.05.2019 16:00:00 15,7 10,7 19,5 16,1 19 10 - - NNW 1021,6 37 0,0
24.05.2019 15:00:00 16,6 11,3 21,6 15,8 19 10 - - N 1021,6 30 0,0
24.05.2019 14:00:00 16,0 10,3 19,8 15,5 21 11 - - N 1021,7 31 0,0
24.05.2019 13:00:00 15,7 9,6 17,7 15,4 18 10 - - N 1021,6 33 0,0
24.05.2019 12:00:00 15,3 9,4 16,1 15,3 16 9 - - N 1021,6 54 0,0
24.05.2019 11:00:00 14,5 9,9 16,6 15,3 16 9 - - NNW 1021,5 51 0,0
24.05.2019 10:00:00 14,9 10,7 14,8 15,3 14 8 - - N 1021,1 36 0,0
24.05.2019 09:00:00 12,7 11,3 15,1 15,4 11 6 - - N 1020,9 10 0,0
24.05.2019 08:00:00 10,1 9,9 8,4 15,6 4 2 - - - 1020,8 7 0,0
24.05.2019 07:00:00 8,5 8,4 7,5 15,7 7 4 - - NNW 1020,7 0,1 0,0
24.05.2019 06:00:00 8,8 8,7 6,6 15,9 6 4 - - NW 1020,1 0,1 0,0
24.05.2019 05:00:00 9,4 9,3 8,3 16,1 6 3 - - NW 1019,7 0,1 0,2
24.05.2019 04:00:00 9,1 9,0 6,8 16,3 6 3 - - NW 1019,6 0,1 0,0
24.05.2019 03:00:00 9,4 9,1 5,8 16,5 5 3 - - NNW 1019,5 0,1 0,0
24.05.2019 02:00:00 9,9 9,4 5,5 16,6 0 0 - - N 1019,5 0,1 0,0
24.05.2019 01:00:00 10,2 9,6 6,0 16,7 5 3 - - N 1019,5 2,1 0,0
24.05.2019 00:00:00 10,7 9,8 8,8 16,9 4 2 - - N 1019,3 5 0,0
23.05.2019 23:00:00 11,1 9,2 10,0 17,0 7 4 - - N 1019,3 10 0,0
23.05.2019 22:00:00 11,8 8,8 11,2 17,0 5 3 15 8 N 1018,8 10 0,0
23.05.2019 21:00:00 13,6 7,8 14,6 17,0 10 5 - - N 1018,4 39 0,0
23.05.2019 20:00:00 14,6 7,9 16,4 16,9 13 7 - - N 1018,1 44 0,0
23.05.2019 19:00:00 15,8 7,0 18,0 16,8 15 8 - - NNW 1018,0 39 0,0
23.05.2019 18:00:00 17,3 6,8 19,1 16,7 14 8 - - N 1017,9 42 0,0
23.05.2019 17:00:00 16,4 6,2 20,1 16,5 14 8 - - N 1017,9 47 0,0
23.05.2019 16:00:00 17,1 9,3 21,5 16,2 10 6 - - NNW 1017,8 33 0,0
23.05.2019 15:00:00 17,0 9,9 19,5 16,0 13 7 - - NNW 1017,9 45 0,0
23.05.2019 14:00:00 19,0 8,9 20,8 15,7 6 3 - - ZW 1017,6 47 0,0
23.05.2019 13:00:00 17,3 7,9 20,6 15,6 8 4 - - ZW 1017,9 38 0,0
23.05.2019 12:00:00 16,9 8,1 17,9 15,6 5 3 - - ZZW 1018,3 28 0,0
23.05.2019 11:00:00 14,6 7,9 15,7 15,6 4 2 - - WNW 1018,5 28 0,0
23.05.2019 10:00:00 14,0 9,0 15,7 15,7 6 3 - - W 1018,5 29 0,0
23.05.2019 09:00:00 12,1 10,2 10,8 15,8 4 2 - - W 1018,4 5 0,0
23.05.2019 08:00:00 10,3 8,6 8,3 16,0 0 0 - - N 1018,1 9 0,0
23.05.2019 07:00:00 7,6 5,9 5,0 16,2 3 2 - - NW 1018,1 13 0,0
23.05.2019 06:00:00 8,6 6,2 5,4 16,4 8 4 - - Z 1018,1 19 0,0
23.05.2019 05:00:00 8,8 6,6 5,8 16,6 8 5 - - ZZO 1018,1 20 0,0
23.05.2019 04:00:00 9,3 6,9 6,2 16,8 8 5 - - ZZO 1018,5 21 0,0
23.05.2019 03:00:00 9,8 7,7 6,5 17,1 7 4 - - ZZO 1018,8 15 0,0
23.05.2019 02:00:00 10,6 8,0 7,4 17,2 0 0 - - N 1019,2 10 0,0
23.05.2019 01:00:00 11,4 8,1 9,0 17,4 0 0 - - N 1019,4 14 0,0
23.05.2019 00:00:00 12,0 7,7 9,7 17,5 0 0 - - N 1019,7 25 0,0
22.05.2019 23:00:00 12,6 7,5 9,3 17,7 4 2 - - NNW 1019,9 23 0,0
22.05.2019 22:00:00 14,2 7,7 12,6 17,7 5 3 - - NW 1019,7 29 0,0
22.05.2019 21:00:00 15,1 8,6 14,1 17,6 6 4 - - NNW 1019,3 40 0,0
22.05.2019 20:00:00 18,6 8,8 22,9 17,5 7 4 - - N 1019,0 34 0,0
22.05.2019 19:00:00 18,7 10,0 22,3 17,3 10 6 - - N 1019,0 34 0,0
22.05.2019 18:00:00 19,2 10,2 24,7 17,0 11 6 - - N 1019,3 28 0,0
22.05.2019 17:00:00 21,1 10,3 24,8 16,6 12 6 - - WNW 1019,2 39 0,0
22.05.2019 16:00:00 21,6 9,8 25,9 16,2 14 8 - - WZW 1019,2 32 0,0
22.05.2019 15:00:00 21,2 9,1 24,4 15,8 13 7 - - ZW 1019,6 30 0,0
22.05.2019 14:00:00 20,6 9,2 24,9 15,5 16 9 - - WZW 1020,0 34 0,0
22.05.2019 13:00:00 19,8 8,2 24,4 15,3 13 7 - - ZW 1020,2 24 0,0
22.05.2019 12:00:00 19,0 9,7 23,0 15,2 13 7 - - ZW 1020,3 29 0,0
22.05.2019 11:00:00 17,8 8,9 21,6 15,1 7 4 - - Z 1020,5 41 0,0
22.05.2019 10:00:00 16,4 7,1 18,0 15,2 5 3 - - ZZO 1020,8 20 0,0
22.05.2019 09:00:00 13,9 8,1 13,0 15,3 5 3 - - OZO 1020,7 31 0,0
22.05.2019 08:00:00 10,5 7,2 6,8 15,5 9 5 - - ZO 1020,6 23 0,0
22.05.2019 07:00:00 8,6 7,2 5,6 15,7 4 2 - - ZO 1020,4 12 0,0
22.05.2019 06:00:00 8,6 7,7 6,1 15,9 5 3 - - ZO 1020,7 8 0,0
22.05.2019 05:00:00 8,9 8,4 6,8 16,1 6 4 - - ZO 1021,0 2,3 0,0
22.05.2019 04:00:00 8,9 8,4 6,5 16,3 7 4 - - OZO 1021,2 2,7 0,2
22.05.2019 03:00:00 9,6 9,1 7,6 16,5 6 3 - - OZO 1021,4 0,1 0,0
22.05.2019 02:00:00 9,8 9,3 5,2 16,8 5 3 - - O 1021,7 0,1 0,0
22.05.2019 01:00:00 9,5 8,6 5,4 16,9 2 1 8 4 ONO 1021,7 0,2 0,0
22.05.2019 00:00:00 10,4 9,2 8,0 17,1 4 2 8 4 O 1021,8 4,6 0,0
21.05.2019 23:00:00 10,4 9,0 6,5 17,2 5 3 - - NO 1021,8 14 0,0
21.05.2019 22:00:00 11,4 8,8 8,7 17,3 7 4 - - NNO 1021,5 14 0,0
21.05.2019 21:00:00 13,6 8,6 15,3 17,3 12 6 - - NNO 1021,0 34 0,0
21.05.2019 20:00:00 15,2 8,2 18,1 17,3 14 8 - - N 1020,8 29 0,0
21.05.2019 19:00:00 16,1 8,6 23,2 17,1 16 8 - - N 1020,6 35 0,0
21.05.2019 18:00:00 16,8 8,2 24,7 16,8 16 9 26 14 N 1020,3 10 0,0
21.05.2019 17:00:00 17,5 9,6 21,2 16,5 15 8 - - NNO 1020,2 10 0,0
21.05.2019 16:00:00 17,8 10,2 22,8 16,1 14 8 - - N 1020,1 44 0,0
21.05.2019 15:00:00 18,3 11,1 20,6 15,7 11 6 - - N 1020,1 36 0,0
21.05.2019 14:00:00 17,3 11,1 19,5 15,3 8 5 - - N 1020,0 20 0,0
21.05.2019 13:00:00 17,4 8,5 22,9 15,1 7 4 - - NW 1020,1 20 0,0
21.05.2019 12:00:00 15,9 11,7 18,2 15,0 4 2 - - W 1020,0 14 0,0
21.05.2019 11:00:00 12,4 11,5 12,6 15,0 2 1 - - N 1020,3 9 0,0
21.05.2019 10:00:00 10,9 10,9 12,1 15,1 5 3 - - N 1020,1 3,5 0,0
21.05.2019 09:00:00 10,1 10,1 9,8 15,2 0 0 - - N 1019,5 0,1 0,0
21.05.2019 08:00:00 8,8 8,7 8,9 15,3 0 0 - - N 1019,2 0,1 0,0
21.05.2019 07:00:00 8,9 8,8 8,8 15,4 3 1 - - ZZO 1018,7 0,1 0,0
21.05.2019 06:00:00 9,2 9,1 9,0 15,5 2 1 - - W 1018,7 0,1 0,0
21.05.2019 05:00:00 8,9 8,8 8,4 15,7 2 1 - - ZZW 1018,4 0,1 0,2
21.05.2019 04:00:00 9,0 8,9 8,8 15,9 5 3 - - WZW 1018,3 0,1 0,0
21.05.2019 03:00:00 9,1 9,0 8,8 16,1 6 3 - - ZW 1018,1 0,1 0,0
21.05.2019 02:00:00 9,4 9,1 6,2 16,3 7 4 - - ZW 1018,1 0,1 0,0
21.05.2019 01:00:00 9,5 8,9 6,6 16,5 7 4 - - WZW 1018,2 0,4 0,0
21.05.2019 00:00:00 10,3 9,7 8,2 16,6 3 2 - - W 1018,0 14 0,0
20.05.2019 23:00:00 10,1 9,2 7,5 16,8 4 2 - - NW 1017,7 12 0,0
20.05.2019 22:00:00 10,5 8,6 8,7 16,9 8 4 - - NNW 1017,2 38 0,0
20.05.2019 21:00:00 12,5 9,0 13,2 16,9 10 6 - - NNW 1016,9 35 0,0
20.05.2019 20:00:00 13,3 8,1 15,9 16,9 16 9 - - NNW 1016,5 29 0,0
20.05.2019 19:00:00 13,9 9,1 17,5 16,7 19 11 - - NNW 1016,1 30 0,0
20.05.2019 18:00:00 14,8 8,7 20,2 16,5 21 11 - - NNW 1015,8 33 0,0
20.05.2019 17:00:00 15,8 9,5 17,9 16,1 19 10 - - N 1015,4 31 0,0
20.05.2019 16:00:00 15,9 9,1 18,1 15,7 19 10 - - NW 1015,3 20 0,0
20.05.2019 15:00:00 15,7 8,4 18,1 15,3 15 8 - - NNW 1015,3 35 0,0
20.05.2019 14:00:00 15,2 9,1 18,6 15,0 12 7 - - NNW 1015,3 46 0,0
20.05.2019 13:00:00 14,9 9,0 17,3 14,8 10 6 - - N 1015,3 48 0,0
20.05.2019 12:00:00 14,4 8,8 14,8 14,7 13 7 - - NNW 1015,2 10 0,0
20.05.2019 11:00:00 13,7 9,5 14,2 14,7 13 7 - - NNW 1015,1 29 0,0
20.05.2019 10:00:00 12,6 10,0 12,5 14,8 13 7 - - NNW 1014,9 10 0,0
20.05.2019 09:00:00 11,3 9,7 11,2 14,9 11 6 - - NNW 1014,5 10 0,0
20.05.2019 08:00:00 10,6 10,1 10,3 15,0 5 3 - - NW 1014,2 11 0,0
20.05.2019 07:00:00 10,0 9,7 9,5 15,1 5 3 - - NW 1013,7 8 0,0
20.05.2019 06:00:00 9,5 9,2 8,2 15,3 5 3 - - NW 1013,5 6 0,2
20.05.2019 05:00:00 8,9 8,6 8,1 15,5 6 3 - - WNW 1013,6 1,9 0,0
20.05.2019 04:00:00 8,9 8,6 8,0 15,6 7 4 - - WNW 1013,7 2,4 0,0
20.05.2019 03:00:00 8,7 8,4 7,8 15,8 7 4 - - WNW 1013,8 0,9 0,0
20.05.2019 02:00:00 9,2 8,7 8,3 16,0 7 4 - - WNW 1013,8 0,5 0,0
20.05.2019 01:00:00 9,5 9,0 8,3 16,2 7 4 - - WNW 1014,0 0,4 0,0
20.05.2019 00:00:00 9,5 9,0 8,1 16,3 7 4 - - NW 1014,0 4,5 0,0
19.05.2019 23:00:00 9,9 9,1 8,4 16,4 6 4 - - NW 1013,9 5 0,0
19.05.2019 22:00:00 11,2 9,9 10,4 16,5 10 6 - - NNW 1013,3 9 0,0
19.05.2019 21:00:00 12,1 9,8 12,0 16,5 16 9 - - NNW 1013,0 14 0,0

tt = temperatuur
td = dauwpunt
tt 5cm = temperatuur 5cm
tt -20cm = temperatuur -20cm
ff = windsnelheid
fx = windstoten
dd = windrichting
ppp = luchtdruk
vv = zicht
rr = neerslag

Weerstations in de omgeving